User: anonymous   Login
Location: Leuk
(46.3174°N, 7.6341°E)
Time: 01:52:01
(UTC+00:00)
Language:

Cosmos 2322 - Orbit

View from above orbital plane
View from above orbital plane
View from above satellite
View from above satellite

Ground track
Ground track

The orbit data is extracted from the following two-line orbital elements,

1 23704U 95058A   21136.48982101 -.00000271  00000-0 -11895-3 0  9998
2 23704  70.9855 287.8759 0006782  89.8888 270.3011 14.13435709317596
Epoch (UTC): 16 May 2021 11:45:20
Eccentricity: 0.0006782
inclination: 70.9855°
perigee height: 843 km
apogee height: 852 km
right ascension of ascending node: 287.8759°
argument of perigee: 89.8888°
revolutions per day: 14.13435709
mean anomaly at epoch: 270.3011°
orbit number at epoch: 31759

The dashed part of the orbit path shows where the satellite is in the earth's shadow,  

DLR